Location: Mahannah Oil Field
(37.4664°N, 96.6003°W)
Time: 11:35:09
(UTC+00:00)

Altair - Pass Details

Date: 26 January 2021
Orbit: 1501 x 1682 km, 47.2° (Epoch: 24 February)

Event Time Altitude Azimuth Distance (km) Brightness Sun altitude
Exits shadow 12:08:53 21° 266° (W) 3,119 8.5 -17.0°
Maximum altitude 12:16:07 60° 340° (NNW) 1,872 7.8 -15.6°
Drops below altitude 10° 12:26:11 10° 60° (ENE) 3,946 10.3 -13.6°
Sets 12:29:26 0° 64° (ENE) 4,929 11.0 -13.0°
